Weather History for Holland, MI

Change the Weather History Date:

Tuesday, January 29, 2013

  Actual Average Record
Temperature  
Mean Temperature 49 °F 26 °F  
Max Temperature 61 °F 32 °F 61 °F (2013)
Min Temperature 36 °F 20 °F -6 °F (1966)
Degree Days  
Heating Degree Days 16 39  
Month to date heating degree days 1004 1122  
Since 1 July heating degree days 3108 3390  
Cooling Degree Days 0 0  
Month to date cooling degree days 0 0  
Year to date cooling degree days 0 0  
Moisture  
Dew Point 47 °F    
Average Humidity 87    
Maximum Humidity 93    
Minimum Humidity 80    
Precipitation  
Precipitation 1.11 in 0.06 in 1.11 in (2013)
Month to date precipitation 2.70 1.96  
Year to date precipitation 2.70 1.96  
Sea Level Pressure  
Sea Level Pressure 29.64 in    
Wind  
Wind Speed 11 mph (South)    
Max Wind Speed 26 mph    
Max Gust Speed 35 mph    
Visibility 4 miles    
Events Fog , Rain , Thunderstorm    
T = Trace of Precipitation, MM = Missing Value Source: NWS Daily Summary

Daily Weather History Graph

Daily Weather History Graph

Search for Another Location

Airport:

Trip Planner

Search our weather history database for the weather conditions in past years. The results will help you decide how hot, cold, wet, or windy it might be!

Date:

Astronomy

Jan. 29, 2013 Rise Set
Actual Time 8:01 AM EST 5:54 PM EST
Civil Twilight 7:31 AM EST 6:24 PM EST
Nautical Twilight 6:57 AM EST 6:58 PM EST
Astronomical Twilight 6:24 AM EST 7:31 PM EST
Moon 8:55 PM EST (1/29) 8:53 AM EST (1/29)
Length of Visible Light 10h 52m
Length of Day
9h 52m
Waning Gibbous, 94% of the Moon is Illuminated
Jan 29
Waning Gibbous
Feb 3
Last Quarter
Feb 10
New
Feb 17
First Quarter
Feb 25
Full

Hourly Weather History & Observations

Time (EST) Temp. Windchill Dew Point Humidity Pressure Visibility Wind Dir Wind Speed Gust Speed Precip Events Conditions
12:03 AM 35.6 °F 28.6 °F 32.0 °F 87% 29.95 in 8.0 mi East 9.2 mph - N/A   Overcast
12:49 AM 35.6 °F 27.1 °F 30.2 °F 81% 29.90 in 8.0 mi ESE 12.7 mph - N/A   Overcast
12:53 AM 36.0 °F 27.5 °F 30.9 °F 82% 29.92 in 8.0 mi ESE 12.7 mph - N/A   Overcast
1:38 AM 35.6 °F 28.6 °F 33.8 °F 93% 29.88 in 4.0 mi ESE 9.2 mph - N/A   Overcast
1:51 AM 37.4 °F 30.8 °F 33.8 °F 87% 29.87 in 2.5 mi ESE 9.2 mph - N/A   Overcast
1:53 AM 37.0 °F 31.0 °F 33.1 °F 86% 29.89 in 2.0 mi ESE 8.1 mph - N/A   Overcast
2:07 AM 37.4 °F 30.8 °F 33.8 °F 87% 29.87 in 1.5 mi ESE 9.2 mph - N/A   Overcast
2:18 AM 37.4 °F 29.3 °F 33.8 °F 87% 29.84 in 1.0 mi East 12.7 mph - N/A   Overcast
2:26 AM 37.4 °F 29.8 °F 33.8 °F 87% 29.84 in 0.8 mi East 11.5 mph - N/A   Mist
2:53 AM 37.0 °F 33.3 °F 35.1 °F 93% 29.87 in 0.8 mi East 4.6 mph - 0.00 in Rain Light Rain
3:00 AM 37.4 °F 32.1 °F 33.8 °F 87% 29.85 in 0.5 mi ESE 6.9 mph - 0.02 in Fog , Rain , Thunderstorm Rain
3:08 AM 37.4 °F 29.3 °F 35.6 °F 93% 29.82 in 1.0 mi ESE 12.7 mph - 0.05 in Rain , Thunderstorm Rain
3:14 AM 37.4 °F 28.9 °F 35.6 °F 93% 29.81 in 1.8 mi ESE 13.8 mph - 0.06 in Rain , Thunderstorm Light Rain
3:21 AM 39.2 °F 32.0 °F 35.6 °F 87% 29.81 in 3.0 mi SE 11.5 mph - 0.06 in Rain Light Rain
3:30 AM 39.2 °F 33.0 °F 37.4 °F 93% 29.81 in 5.0 mi ESE 9.2 mph - 0.06 in Rain , Thunderstorm Light Rain
3:39 AM 39.2 °F 35.9 °F 37.4 °F 93% 29.82 in 4.0 mi ESE 4.6 mph - 0.11 in Rain , Thunderstorm Heavy Thunderstorms and Rain
3:50 AM 39.2 °F 34.2 °F 35.6 °F 87% 29.81 in 2.0 mi East 6.9 mph - 0.19 in Rain , Thunderstorm Thunderstorms and Rain
3:53 AM 39.0 °F 33.4 °F 36.0 °F 89% 29.82 in 2.5 mi East 8.1 mph - 0.19 in Rain , Thunderstorm Thunderstorms and Rain
4:03 AM 39.2 °F 31.6 °F 37.4 °F 93% 29.78 in 3.0 mi ESE 12.7 mph - 0.01 in Rain , Thunderstorm Light Thunderstorms and Rain
4:20 AM 41.0 °F 34.7 °F 37.4 °F 87% 29.75 in 2.5 mi SE 10.4 mph - 0.02 in   Overcast
4:29 AM 41.0 °F 33.5 °F 37.4 °F 87% 29.75 in 2.5 mi SE 13.8 mph - 0.02 in   Overcast
4:53 AM 42.1 °F 35.2 °F 39.9 °F 92% 29.75 in 2.0 mi SE 12.7 mph - 0.02 in   Overcast
5:00 AM 42.8 °F 36.6 °F 39.2 °F 87% 29.73 in 1.8 mi SE 11.5 mph - 0.02 in Rain , Thunderstorm Light Rain
5:12 AM 42.8 °F 37.5 °F 39.2 °F 87% 29.74 in 1.2 mi SE 9.2 mph - 0.03 in Rain , Thunderstorm Light Thunderstorms and Rain
5:53 AM 41.0 °F 35.2 °F 39.0 °F 93% 29.73 in 0.8 mi East 9.2 mph - 0.15 in Rain Light Rain
6:05 AM 42.8 °F 38.6 °F 39.2 °F 87% 29.71 in 0.5 mi ESE 6.9 mph - 0.02 in Fog Fog
7:34 AM 51.8 °F - 51.8 °F 100% 29.69 in 1.0 mi SSW 12.7 mph - 0.00 in   Overcast
7:38 AM 53.6 °F - 51.8 °F 94% 29.69 in 2.0 mi SSW 20.7 mph 27.6 mph 0.00 in   Overcast
7:40 AM 55.4 °F - 53.6 °F 94% 29.68 in 3.0 mi SSW 19.6 mph 27.6 mph 0.00 in   Overcast
7:53 AM 57.0 °F - 54.0 °F 89% 29.70 in 6.0 mi SSW 24.2 mph 32.2 mph 0.00 in   Overcast
8:53 AM 57.9 °F - 55.9 °F 93% 29.70 in 7.0 mi SSW 23.0 mph 34.5 mph N/A   Overcast
9:53 AM 59.0 °F - 55.9 °F 90% 29.70 in 6.0 mi SSW 23.0 mph 31.1 mph N/A   Overcast
10:53 AM 60.1 °F - 55.0 °F 83% 29.70 in 7.0 mi SSW 23.0 mph 29.9 mph 0.00 in   Overcast
11:53 AM 59.0 °F - 55.0 °F 87% 29.69 in 7.0 mi SSW 13.8 mph 25.3 mph N/A   Overcast
12:53 PM 60.1 °F - 55.0 °F 83% 29.66 in 10.0 mi SSW 19.6 mph 29.9 mph 0.04 in   Overcast
1:03 PM 60.8 °F - 55.4 °F 82% 29.64 in 10.0 mi SSW 17.3 mph 28.8 mph N/A   Overcast
1:43 PM 60.8 °F - 55.4 °F 82% 29.62 in 7.0 mi South 13.8 mph - N/A   Overcast
1:53 PM 60.1 °F - 55.0 °F 83% 29.63 in 6.0 mi SSW 12.7 mph - N/A   Haze
2:17 PM 60.8 °F - 55.4 °F 82% 29.62 in 2.0 mi SSW 13.8 mph 24.2 mph N/A   Overcast
2:28 PM 60.8 °F - 55.4 °F 82% 29.61 in 4.0 mi SSW 18.4 mph 26.5 mph N/A   Overcast
2:53 PM 61.0 °F - 55.9 °F 83% 29.61 in 6.0 mi SSW 16.1 mph 29.9 mph N/A   Haze
3:53 PM 60.1 °F - 55.0 °F 83% 29.59 in 7.0 mi South 10.4 mph - N/A   Overcast
4:53 PM 59.0 °F - 55.0 °F 87% 29.51 in 4.0 mi South 12.7 mph - 0.01 in Rain Light Rain
5:02 PM 57.2 °F - 55.4 °F 94% 29.58 in 3.0 mi SSW 11.5 mph - 0.06 in Rain , Thunderstorm Rain
5:05 PM 57.2 °F - 55.4 °F 94% 29.58 in 1.8 mi South 11.5 mph - 0.12 in Rain , Thunderstorm Heavy Rain
5:12 PM 57.2 °F - 55.4 °F 94% 29.57 in 1.0 mi SSW 10.4 mph 20.7 mph 0.22 in Rain , Thunderstorm Heavy Thunderstorms and Rain
5:18 PM 57.2 °F - 55.4 °F 94% 29.57 in 2.0 mi SSW 10.4 mph - 0.23 in Rain , Thunderstorm Light Thunderstorms and Rain
5:29 PM 59.0 °F - 55.4 °F 88% 29.56 in 3.0 mi South 11.5 mph - 0.26 in Rain , Thunderstorm Light Rain
5:34 PM 57.2 °F - 55.4 °F 94% 29.56 in 4.0 mi South 10.4 mph - 0.26 in Rain Light Rain
5:45 PM 57.2 °F - 55.4 °F 94% 29.55 in 2.5 mi South 10.4 mph - 0.27 in   Overcast
5:50 PM 57.2 °F - 55.4 °F 94% 29.55 in 2.5 mi South 10.4 mph - 0.27 in Rain , Thunderstorm Light Rain
5:53 PM 57.9 °F - 55.9 °F 93% 29.56 in 2.5 mi South 10.4 mph - 0.27 in Rain , Thunderstorm Light Rain
6:08 PM 57.2 °F - 55.4 °F 94% 29.54 in 1.5 mi South 9.2 mph - 0.15 in Rain , Thunderstorm Heavy Thunderstorms and Rain
6:12 PM 57.2 °F - 55.4 °F 94% 29.54 in 2.5 mi South 10.4 mph - 0.16 in Rain , Thunderstorm Light Thunderstorms and Rain
6:14 PM 57.2 °F - 55.4 °F 94% 29.54 in 3.0 mi South 10.4 mph - 0.16 in Rain , Thunderstorm Light Thunderstorms and Rain
6:35 PM 57.2 °F - 55.4 °F 94% 29.53 in 5.0 mi South 10.4 mph 18.4 mph 0.16 in   Overcast
6:53 PM 59.0 °F - 55.0 °F 87% 29.46 in 5.0 mi South 11.5 mph - 0.16 in   Overcast
7:53 PM 59.0 °F - 55.0 °F 87% 29.48 in 8.0 mi South 18.4 mph 24.2 mph N/A   Overcast
8:05 PM 59.0 °F - 55.4 °F 88% 29.47 in 7.0 mi South 15.0 mph 24.2 mph 0.01 in Rain Light Rain
8:53 PM 59.0 °F - 54.0 °F 83% 29.42 in 9.0 mi South 16.1 mph 21.9 mph 0.04 in   Overcast
9:26 PM 55.4 °F - 53.6 °F 94% 29.45 in 6.0 mi SW 16.1 mph 29.9 mph 0.10 in Rain Light Rain
9:35 PM 57.2 °F - 53.6 °F 88% 29.44 in 5.0 mi SSW 16.1 mph 24.2 mph 0.11 in Rain Light Rain
9:49 PM 55.4 °F - 53.6 °F 94% 29.43 in 4.0 mi SW 18.4 mph 24.2 mph 0.13 in Rain Rain
9:53 PM 55.0 °F - 53.1 °F 93% 29.44 in 5.0 mi SW 19.6 mph - 0.14 in Rain Light Rain
10:13 PM 53.6 °F - 51.8 °F 94% 29.43 in 10.0 mi WSW 11.5 mph - 0.01 in Rain Light Rain
10:48 PM 51.8 °F - 50.0 °F 94% 29.41 in 6.0 mi WSW 5.8 mph - 0.02 in Rain Light Rain
10:53 PM 51.1 °F - 50.0 °F 96% 29.41 in 6.0 mi WSW 4.6 mph - 0.02 in   Overcast
11:15 PM 51.8 °F - 48.2 °F 88% 29.40 in 4.0 mi West 4.6 mph - 0.00 in Rain Light Rain
11:23 PM 51.8 °F - 50.0 °F 94% 29.42 in 7.0 mi SW 6.9 mph - 0.01 in Rain Light Rain
11:30 PM 51.8 °F - 50.0 °F 94% 29.42 in 8.0 mi Calm Calm - 0.01 in Rain Light Rain
11:41 PM 51.8 °F - 48.2 °F 88% 29.41 in 5.0 mi West 5.8 mph - 0.01 in Rain Light Rain
11:50 PM 51.8 °F - 50.0 °F 94% 29.40 in 2.5 mi West 4.6 mph - 0.02 in Rain Light Rain
11:53 PM 50.0 °F - 48.9 °F 96% 29.40 in 2.0 mi West 4.6 mph - 0.02 in Rain Light Rain